Time,TemperatureF,DewpointF,PressureIn,WindDirection,WindDirectionDegrees,WindSpeedMPH,WindSpeedGustMPH,Humidity,HourlyPrecipIn,Conditions,Clouds,dailyrainin,SolarRadiationWatts/m^2,SoftwareType,DateUTC
2013-04-24 00:01:00,27.0,27.0,-100.00,WNW,290,4.0,7.0,97,0.00,,,0.00,0.000000,,2013-04-24 08:01:00,
2013-04-24 00:11:00,27.0,27.0,-100.00,WNW,290,4.0,7.0,97,0.00,,,0.00,0.000000,,2013-04-24 08:11:00,
2013-04-24 00:21:00,27.0,27.0,-100.00,WNW,290,4.0,7.0,97,0.00,,,0.00,0.000000,,2013-04-24 08:21:00,
2013-04-24 00:33:00,27.0,27.0,-100.00,WNW,290,4.0,7.0,97,0.00,,,0.00,0.000000,,2013-04-24 08:33:00,
2013-04-24 00:42:00,27.0,27.0,-100.00,WNW,290,4.0,7.0,97,0.00,,,0.00,0.000000,,2013-04-24 08:42:00,
2013-04-24 01:01:00,27.0,27.0,-100.00,WNW,286,6.0,7.0,97,0.00,,,0.00,0.000000,,2013-04-24 09:01:00,
2013-04-24 01:11:00,27.0,27.0,-100.00,WNW,286,6.0,7.0,97,0.00,,,0.00,0.000000,,2013-04-24 09:11:00,
2013-04-24 01:21:00,27.0,27.0,-100.00,WNW,286,6.0,7.0,97,0.00,,,0.00,0.000000,,2013-04-24 09:21:00,
2013-04-24 01:32:00,27.0,27.0,-100.00,WNW,286,6.0,7.0,97,0.00,,,0.00,0.000000,,2013-04-24 09:32:00,
2013-04-24 01:42:00,27.0,27.0,-100.00,WNW,286,6.0,7.0,97,0.00,,,0.00,0.000000,,2013-04-24 09:42:00,
2013-04-24 02:02:00,26.0,26.0,-100.00,WNW,289,5.0,8.0,97,0.00,,,0.00,0.000000,,2013-04-24 10:02:00,
2013-04-24 02:12:00,26.0,26.0,-100.00,WNW,289,5.0,8.0,97,0.00,,,0.00,0.000000,,2013-04-24 10:12:00,
2013-04-24 02:22:00,26.0,26.0,-100.00,WNW,289,5.0,8.0,97,0.00,,,0.00,0.000000,,2013-04-24 10:22:00,
2013-04-24 02:32:00,26.0,26.0,-100.00,WNW,289,5.0,8.0,97,0.00,,,0.00,0.000000,,2013-04-24 10:32:00,
2013-04-24 02:42:00,26.0,26.0,-100.00,WNW,289,5.0,8.0,97,0.00,,,0.00,0.000000,,2013-04-24 10:42:00,
2013-04-24 03:02:00,26.0,25.0,-100.00,West,265,3.0,10.0,96,0.00,,,0.00,0.000000,,2013-04-24 11:02:00,
2013-04-24 03:11:00,26.0,25.0,-100.00,West,265,3.0,10.0,96,0.00,,,0.00,0.000000,,2013-04-24 11:11:00,
2013-04-24 03:21:00,26.0,25.0,-100.00,West,265,3.0,10.0,96,0.00,,,0.00,0.000000,,2013-04-24 11:21:00,
2013-04-24 03:32:00,26.0,25.0,-100.00,West,265,3.0,10.0,96,0.00,,,0.00,0.000000,,2013-04-24 11:32:00,
2013-04-24 03:42:00,26.0,25.0,-100.00,West,265,3.0,10.0,96,0.00,,,0.00,0.000000,,2013-04-24 11:42:00,
2013-04-24 04:02:00,25.0,24.0,-100.00,SSW,211,4.0,8.0,96,0.00,,,0.00,0.000000,,2013-04-24 12:02:00,
2013-04-24 04:11:00,25.0,24.0,-100.00,SSW,211,4.0,8.0,96,0.00,,,0.00,0.000000,,2013-04-24 12:11:00,
2013-04-24 04:22:00,25.0,24.0,-100.00,SSW,211,4.0,8.0,96,0.00,,,0.00,0.000000,,2013-04-24 12:22:00,
2013-04-24 04:32:00,25.0,24.0,-100.00,SSW,211,4.0,8.0,96,0.00,,,0.00,0.000000,,2013-04-24 12:32:00,
2013-04-24 04:42:00,25.0,24.0,-100.00,SSW,211,4.0,8.0,96,0.00,,,0.00,0.000000,,2013-04-24 12:42:00,
2013-04-24 05:01:00,26.0,25.0,-100.00,WNW,287,4.0,8.0,96,0.00,,,0.00,0.000000,,2013-04-24 13:01:00,
2013-04-24 05:12:00,26.0,25.0,-100.00,WNW,287,4.0,8.0,96,0.00,,,0.00,0.000000,,2013-04-24 13:12:00,
2013-04-24 05:22:00,26.0,25.0,-100.00,WNW,287,4.0,8.0,96,0.00,,,0.00,0.000000,,2013-04-24 13:22:00,
2013-04-24 05:31:00,26.0,25.0,-100.00,WNW,287,4.0,8.0,96,0.00,,,0.00,0.000000,,2013-04-24 13:31:00,
2013-04-24 05:41:00,26.0,25.0,-100.00,WNW,287,4.0,8.0,96,0.00,,,0.00,0.000000,,2013-04-24 13:41:00,
2013-04-24 06:11:00,26.0,25.0,-100.00,West,266,3.0,6.0,96,0.00,,,-99.99,0.000000,,2013-04-24 14:11:00,
2013-04-24 06:21:00,26.0,25.0,-100.00,West,266,3.0,6.0,96,0.00,,,-99.99,0.000000,,2013-04-24 14:21:00,
2013-04-24 06:32:00,26.0,25.0,-100.00,West,266,3.0,6.0,96,0.00,,,-99.99,0.000000,,2013-04-24 14:32:00,
2013-04-24 06:41:00,26.0,25.0,-100.00,West,266,3.0,6.0,96,0.00,,,-99.99,0.000000,,2013-04-24 14:41:00,
2013-04-24 07:01:00,26.0,25.0,-100.00,West,259,5.0,6.0,96,0.00,,,0.00,4.100000,,2013-04-24 15:01:00,
2013-04-24 07:11:00,26.0,25.0,-100.00,West,259,5.0,6.0,96,0.00,,,0.00,4.100000,,2013-04-24 15:11:00,
2013-04-24 07:21:00,26.0,25.0,-100.00,West,259,5.0,6.0,96,0.00,,,0.00,4.100000,,2013-04-24 15:21:00,
2013-04-24 07:33:00,26.0,25.0,-100.00,West,259,5.0,6.0,96,0.00,,,0.00,4.100000,,2013-04-24 15:33:00,
2013-04-24 07:42:00,26.0,25.0,-100.00,West,259,5.0,6.0,96,0.00,,,0.00,4.100000,,2013-04-24 15:42:00,
2013-04-24 08:03:00,26.0,25.0,-100.00,West,273,6.0,8.0,94,0.00,,,0.00,54.000000,,2013-04-24 16:03:00,
2013-04-24 08:12:00,26.0,25.0,-100.00,West,273,6.0,8.0,94,0.00,,,0.00,54.000000,,2013-04-24 16:12:00,
2013-04-24 08:23:00,26.0,25.0,-100.00,West,273,6.0,8.0,94,0.00,,,0.00,54.000000,,2013-04-24 16:23:00,
2013-04-24 08:32:00,26.0,25.0,-100.00,West,273,6.0,8.0,94,0.00,,,0.00,54.000000,,2013-04-24 16:32:00,
2013-04-24 08:42:00,26.0,25.0,-100.00,West,273,6.0,8.0,94,0.00,,,0.00,54.000000,,2013-04-24 16:42:00,
2013-04-24 09:02:00,27.0,26.0,-100.00,WSW,248,3.0,9.0,94,0.00,,,0.00,134.399994,,2013-04-24 17:02:00,
2013-04-24 09:12:00,27.0,26.0,-100.00,WSW,248,3.0,9.0,94,0.00,,,0.00,134.399994,,2013-04-24 17:12:00,
2013-04-24 09:22:00,27.0,26.0,-100.00,WSW,248,3.0,9.0,94,0.00,,,0.00,134.399994,,2013-04-24 17:22:00,
2013-04-24 09:32:00,27.0,26.0,-100.00,WSW,248,3.0,9.0,94,0.00,,,0.00,134.399994,,2013-04-24 17:32:00,
2013-04-24 09:42:00,27.0,26.0,-100.00,WSW,248,3.0,9.0,94,0.00,,,0.00,134.399994,,2013-04-24 17:42:00,
2013-04-24 10:02:00,29.0,27.0,-100.00,West,265,2.0,6.0,91,0.00,,,0.00,245.500000,,2013-04-24 18:02:00,
2013-04-24 10:12:00,29.0,27.0,-100.00,West,265,2.0,6.0,91,0.00,,,0.00,245.500000,,2013-04-24 18:12:00,
2013-04-24 10:21:00,29.0,27.0,-100.00,West,265,2.0,6.0,91,0.00,,,0.00,245.500000,,2013-04-24 18:21:00,
2013-04-24 10:32:00,29.0,27.0,-100.00,West,265,2.0,6.0,91,0.00,,,0.00,245.500000,,2013-04-24 18:32:00,
2013-04-24 10:42:00,29.0,27.0,-100.00,West,265,2.0,6.0,91,0.00,,,0.00,245.500000,,2013-04-24 18:42:00,
2013-04-24 11:01:00,29.0,26.0,-100.00,NW,306,7.0,7.0,87,0.00,,,0.00,425.200012,,2013-04-24 19:01:00,
2013-04-24 11:11:00,29.0,26.0,-100.00,NW,306,7.0,7.0,87,0.00,,,0.00,425.200012,,2013-04-24 19:11:00,
2013-04-24 11:21:00,29.0,26.0,-100.00,NW,306,7.0,7.0,87,0.00,,,0.00,425.200012,,2013-04-24 19:21:00,
2013-04-24 11:31:00,29.0,26.0,-100.00,NW,306,7.0,7.0,87,0.00,,,0.00,425.200012,,2013-04-24 19:31:00,
2013-04-24 11:42:00,29.0,26.0,-100.00,NW,306,7.0,7.0,87,0.00,,,0.00,425.200012,,2013-04-24 19:42:00,
2013-04-24 12:01:00,29.0,26.0,-100.00,WNW,295,6.0,10.0,87,0.00,,,0.00,501.500000,,2013-04-24 20:01:00,
2013-04-24 12:11:00,29.0,26.0,-100.00,WNW,295,6.0,10.0,87,0.00,,,0.00,501.500000,,2013-04-24 20:11:00,
2013-04-24 12:21:00,29.0,26.0,-100.00,WNW,295,6.0,10.0,87,0.00,,,0.00,501.500000,,2013-04-24 20:21:00,
2013-04-24 12:32:00,29.0,26.0,-100.00,WNW,295,6.0,10.0,87,0.00,,,0.00,501.500000,,2013-04-24 20:32:00,
2013-04-24 12:42:00,29.0,26.0,-100.00,WNW,295,6.0,10.0,87,0.00,,,0.00,501.500000,,2013-04-24 20:42:00,
2013-04-24 13:02:00,29.0,26.0,-100.00,WNW,293,8.0,11.0,87,0.00,,,0.00,523.299988,,2013-04-24 21:02:00,
2013-04-24 13:11:00,29.0,26.0,-100.00,WNW,293,8.0,11.0,87,0.00,,,0.00,523.299988,,2013-04-24 21:11:00,
2013-04-24 13:21:00,29.0,26.0,-100.00,WNW,293,8.0,11.0,87,0.00,,,0.00,523.299988,,2013-04-24 21:21:00,
2013-04-24 13:32:00,29.0,26.0,-100.00,WNW,293,8.0,11.0,87,0.00,,,0.00,523.299988,,2013-04-24 21:32:00,
2013-04-24 13:42:00,29.0,26.0,-100.00,WNW,293,8.0,11.0,87,0.00,,,0.00,523.299988,,2013-04-24 21:42:00,
2013-04-24 14:03:00,29.0,25.0,-100.00,WNW,302,9.0,12.0,85,0.00,,,0.00,610.799988,,2013-04-24 22:03:00,
2013-04-24 14:12:00,29.0,25.0,-100.00,WNW,302,9.0,12.0,85,0.00,,,0.00,610.799988,,2013-04-24 22:12:00,
2013-04-24 14:22:00,29.0,25.0,-100.00,WNW,302,9.0,12.0,85,0.00,,,0.00,610.799988,,2013-04-24 22:22:00,
2013-04-24 14:33:00,29.0,25.0,-100.00,WNW,302,9.0,12.0,85,0.00,,,0.00,610.799988,,2013-04-24 22:33:00,
2013-04-24 14:42:00,29.0,25.0,-100.00,WNW,302,9.0,12.0,85,0.00,,,0.00,610.799988,,2013-04-24 22:42:00,
2013-04-24 15:02:00,30.0,26.0,-100.00,WNW,294,6.0,13.0,85,0.00,,,0.00,683.799988,,2013-04-24 23:02:00,
2013-04-24 15:12:00,30.0,26.0,-100.00,WNW,294,6.0,13.0,85,0.00,,,0.00,683.799988,,2013-04-24 23:12:00,
2013-04-24 15:21:00,30.0,26.0,-100.00,WNW,294,6.0,13.0,85,0.00,,,0.00,683.799988,,2013-04-24 23:21:00,
2013-04-24 15:32:00,30.0,26.0,-100.00,WNW,294,6.0,13.0,85,0.00,,,0.00,683.799988,,2013-04-24 23:32:00,
2013-04-24 15:41:00,30.0,26.0,-100.00,WNW,294,6.0,13.0,85,0.00,,,0.00,683.799988,,2013-04-24 23:41:00,
2013-04-24 16:01:00,29.0,26.0,-100.00,NNW,328,10.0,10.0,85,0.00,,,0.00,784.200012,,2013-04-25 00:01:00,
2013-04-24 16:12:00,29.0,26.0,-100.00,NNW,328,10.0,10.0,85,0.00,,,0.00,784.200012,,2013-04-25 00:12:00,
2013-04-24 16:22:00,29.0,26.0,-100.00,NNW,328,10.0,10.0,85,0.00,,,0.00,784.200012,,2013-04-25 00:22:00,
2013-04-24 16:32:00,29.0,26.0,-100.00,NNW,328,10.0,10.0,85,0.00,,,0.00,784.200012,,2013-04-25 00:32:00,
2013-04-24 16:41:00,29.0,26.0,-100.00,NNW,328,10.0,10.0,85,0.00,,,0.00,784.200012,,2013-04-25 00:41:00,
2013-04-24 17:01:00,30.0,26.0,-100.00,NW,326,8.0,15.0,86,0.00,,,0.00,690.900024,,2013-04-25 01:01:00,
2013-04-24 17:11:00,30.0,26.0,-100.00,NW,326,8.0,15.0,86,0.00,,,0.00,690.900024,,2013-04-25 01:11:00,
2013-04-24 17:22:00,30.0,26.0,-100.00,NW,326,8.0,15.0,86,0.00,,,0.00,690.900024,,2013-04-25 01:22:00,
2013-04-24 17:32:00,30.0,26.0,-100.00,NW,326,8.0,15.0,86,0.00,,,0.00,690.900024,,2013-04-25 01:32:00,
2013-04-24 17:41:00,30.0,26.0,-100.00,NW,326,8.0,15.0,86,0.00,,,0.00,690.900024,,2013-04-25 01:41:00,
2013-04-24 18:02:00,28.0,25.0,-100.00,NW,324,13.0,13.0,89,0.00,,,0.00,498.600006,,2013-04-25 02:02:00,
2013-04-24 18:11:00,28.0,25.0,-100.00,NW,324,13.0,13.0,89,0.00,,,0.00,498.600006,,2013-04-25 02:11:00,
2013-04-24 18:22:00,28.0,25.0,-100.00,NW,324,13.0,13.0,89,0.00,,,0.00,498.600006,,2013-04-25 02:22:00,
2013-04-24 18:32:00,28.0,25.0,-100.00,NW,324,13.0,13.0,89,0.00,,,0.00,498.600006,,2013-04-25 02:32:00,
2013-04-24 18:41:00,28.0,25.0,-100.00,NW,324,13.0,13.0,89,0.00,,,0.00,498.600006,,2013-04-25 02:41:00,
2013-04-24 19:02:00,26.0,25.0,-100.00,NNW,328,17.0,17.0,94,0.00,,,0.00,289.100006,,2013-04-25 03:02:00,
2013-04-24 19:11:00,26.0,25.0,-100.00,NNW,328,17.0,17.0,94,0.00,,,0.00,289.100006,,2013-04-25 03:11:00,
2013-04-24 19:22:00,26.0,25.0,-100.00,NNW,328,17.0,17.0,94,0.00,,,0.00,289.100006,,2013-04-25 03:22:00,
2013-04-24 19:32:00,26.0,25.0,-100.00,NNW,328,17.0,17.0,94,0.00,,,0.00,289.100006,,2013-04-25 03:32:00,
2013-04-24 19:42:00,26.0,25.0,-100.00,NNW,328,17.0,17.0,94,0.00,,,0.00,289.100006,,2013-04-25 03:42:00,
2013-04-24 20:03:00,26.0,25.0,-100.00,NW,318,13.0,20.0,94,0.00,,,0.00,189.500000,,2013-04-25 04:03:00,
2013-04-24 20:12:00,26.0,25.0,-100.00,NW,318,13.0,20.0,94,0.00,,,0.00,189.500000,,2013-04-25 04:12:00,
2013-04-24 20:22:00,26.0,25.0,-100.00,NW,318,13.0,20.0,94,0.00,,,0.00,189.500000,,2013-04-25 04:22:00,
2013-04-24 20:32:00,26.0,25.0,-100.00,NW,318,13.0,20.0,94,0.00,,,0.00,189.500000,,2013-04-25 04:32:00,
2013-04-24 20:42:00,26.0,25.0,-100.00,NW,318,13.0,20.0,94,0.00,,,0.00,189.500000,,2013-04-25 04:42:00,